• In Uzbekistan
  • List of Countries
  • For 7 days
  • Water Temperature
  • Satellite Maps
  • Weather Map
  • Weather Widgets
  • user-avatar
    Login

    Hourly Weather Serednica

    Today, 17 July, Tuesday

    Time Temperature Precipitation Wind Pressure Humidity
    00:00 +14°C° 0 mm 2 mps 717 mmHg 96%
    01:00 +14°C° 0 mm 1 mps 716 mmHg 97%
    02:00 +14°C° 0.1 mm 1 mps 716 mmHg 97%
    03:00 +14°C° 0.1 mm 1 mps 716 mmHg 97%
    04:00 +14°C° 0.1 mm 1 mps 716 mmHg 97%
    05:00 +15°C° 0 mm 2 mps 716 mmHg 96%
    06:00 +16°C° 0 mm 2 mps 716 mmHg 95%
    07:00 +17°C° 0 mm 3 mps 716 mmHg 93%
    08:00 +18°C° 0.3 mm 3 mps 716 mmHg 91%
    09:00 +19°C° 0.3 mm 3 mps 716 mmHg 89%
    10:00 +19°C° 0.3 mm 3 mps 716 mmHg 87%
    11:00 +20°C° 0.6 mm 4 mps 715 mmHg 87%
    12:00 +20°C° 0.6 mm 4 mps 715 mmHg 86%
    13:00 +21°C° 0.6 mm 4 mps 715 mmHg 85%
    14:00 +21°C° 0.4 mm 4 mps 715 mmHg 83%
    15:00 +21°C° 0.4 mm 4 mps 715 mmHg 82%
    16:00 +21°C° 0.4 mm 4 mps 715 mmHg 80%
    17:00 +20°C° 0.1 mm 4 mps 715 mmHg 84%
    18:00 +19°C° 0.1 mm 3 mps 715 mmHg 88%
    19:00 +18°C° 0.1 mm 3 mps 715 mmHg 92%
    20:00 +17°C° 0 mm 3 mps 715 mmHg 93%
    21:00 +17°C° 0 mm 3 mps 715 mmHg 95%
    22:00 +16°C° 0 mm 3 mps 715 mmHg 96%
    23:00 +16°C° 0 mm 3 mps 715 mmHg 96%

    Tomorrow, 18 July, Wednesday

    Time Temperature Precipitation Wind Pressure Humidity
    00:00 +16°C° 0 mm 2 mps 715 mmHg 96%
    01:00 +16°C° 0 mm 2 mps 715 mmHg 97%
    02:00 +17°C° 0.1 mm 2 mps 715 mmHg 97%
    03:00 +17°C° 0.1 mm 2 mps 715 mmHg 97%
    04:00 +17°C° 0.1 mm 2 mps 715 mmHg 97%
    05:00 +17°C° 0.1 mm 2 mps 715 mmHg 97%
    06:00 +17°C° 0.1 mm 2 mps 715 mmHg 96%
    07:00 +18°C° 0.1 mm 2 mps 715 mmHg 96%
    08:00 +18°C° 0.1 mm 2 mps 715 mmHg 93%
    09:00 +19°C° 0.1 mm 2 mps 715 mmHg 91%
    10:00 +20°C° 0.1 mm 3 mps 715 mmHg 89%
    11:00 +20°C° 0.6 mm 3 mps 715 mmHg 88%
    12:00 +21°C° 0.6 mm 3 mps 715 mmHg 87%
    13:00 +21°C° 0.6 mm 3 mps 715 mmHg 86%
    14:00 +21°C° 0.3 mm 3 mps 715 mmHg 84%
    15:00 +22°C° 0.3 mm 3 mps 715 mmHg 81%
    16:00 +22°C° 0.3 mm 3 mps 715 mmHg 79%
    17:00 +21°C° 0.2 mm 2 mps 715 mmHg 83%
    18:00 +20°C° 0.2 mm 2 mps 715 mmHg 88%
    19:00 +19°C° 0.2 mm 2 mps 715 mmHg 92%
    20:00 +19°C° 0 mm 2 mps 715 mmHg 93%
    21:00 +19°C° 0 mm 1 mps 715 mmHg 95%
    22:00 +18°C° 0 mm 1 mps 715 mmHg 96%
    23:00 +18°C° 0 mm 1 mps 715 mmHg 97%

    Day after tomorrow, 19 July, Thursday

    Time Temperature Precipitation Wind Pressure Humidity
    00:00 +18°C° 0 mm 1 mps 716 mmHg 97%
    01:00 +18°C° 0 mm 1 mps 716 mmHg 97%
    02:00 +17°C° 0.1 mm 2 mps 716 mmHg 98%
    03:00 +17°C° 0.1 mm 2 mps 716 mmHg 98%
    04:00 +18°C° 0.1 mm 2 mps 716 mmHg 98%
    05:00 +18°C° 0.1 mm 2 mps 716 mmHg 97%
    06:00 +19°C° 0.1 mm 2 mps 717 mmHg 97%
    07:00 +19°C° 0.1 mm 3 mps 717 mmHg 96%
    08:00 +20°C° 0.2 mm 3 mps 717 mmHg 94%
    09:00 +21°C° 0.2 mm 3 mps 718 mmHg 92%
    10:00 +21°C° 0.2 mm 3 mps 718 mmHg 90%
    11:00 +22°C° 0.3 mm 3 mps 718 mmHg 86%
    12:00 +23°C° 0.3 mm 4 mps 718 mmHg 82%
    13:00 +25°C° 0.3 mm 4 mps 718 mmHg 78%
    14:00 +25°C° 0.1 mm 4 mps 718 mmHg 78%
    15:00 +25°C° 0.1 mm 4 mps 718 mmHg 77%
    16:00 +25°C° 0.1 mm 4 mps 718 mmHg 76%
    17:00 +22°C° 0.1 mm 4 mps 718 mmHg 80%
    18:00 +21°C° 0.2 mm 4 mps 719 mmHg 84%
    19:00 +20°C° 0.2 mm 4 mps 719 mmHg 88%
    20:00 +19°C° 0.1 mm 3 mps 719 mmHg 90%
    21:00 +18°C° 0.1 mm 3 mps 719 mmHg 93%
    22:00 +18°C° 0.1 mm 3 mps 719 mmHg 96%
    23:00 +17°C° 0 mm 3 mps 719 mmHg 96%

    20 July, Friday

    Time Temperature Precipitation Wind Pressure Humidity
    00:00 +17°C° 0 mm 3 mps 719 mmHg 97%
    01:00 +17°C° 0 mm 3 mps 719 mmHg 97%
    02:00 +17°C° 0 mm 3 mps 719 mmHg 97%
    03:00 +17°C° 0 mm 3 mps 719 mmHg 97%
    04:00 +17°C° 0 mm 4 mps 719 mmHg 97%
    05:00 +18°C° 0.1 mm 4 mps 720 mmHg 96%
    06:00 +18°C° 0.1 mm 4 mps 720 mmHg 94%
    07:00 +18°C° 0.1 mm 4 mps 720 mmHg 93%
    08:00 +19°C° 0 mm 4 mps 720 mmHg 89%
    09:00 +20°C° 0 mm 4 mps 720 mmHg 84%
    10:00 +21°C° 0 mm 4 mps 720 mmHg 79%
    11:00 +22°C° 0.1 mm 4 mps 720 mmHg 73%
    12:00 +23°C° 0.1 mm 4 mps 720 mmHg 66%
    13:00 +26°C° 0.1 mm 5 mps 720 mmHg 59%
    14:00 +25°C° 0 mm 5 mps 720 mmHg 62%
    15:00 +25°C° 0 mm 5 mps 720 mmHg 65%
    16:00 +25°C° 0 mm 5 mps 720 mmHg 67%
    17:00 +22°C° 0.1 mm 4 mps 720 mmHg 74%
    18:00 +21°C° 0.1 mm 4 mps 720 mmHg 81%
    19:00 +19°C° 0.1 mm 3 mps 720 mmHg 88%
    20:00 +18°C° 0 mm 3 mps 720 mmHg 91%
    21:00 +18°C° 0 mm 3 mps 720 mmHg 93%
    22:00 +17°C° 0 mm 3 mps 720 mmHg 96%
    23:00 +16°C° 0 mm 2 mps 720 mmHg 96%

    21 July, Saturday

    Time Temperature Precipitation Wind Pressure Humidity
    00:00 +16°C° 0 mm 2 mps 720 mmHg 96%
    01:00 +16°C° 0 mm 2 mps 720 mmHg 97%
    02:00 +16°C° 0 mm 2 mps 720 mmHg 97%
    03:00 +15°C° 0 mm 2 mps 719 mmHg 97%
    04:00 +15°C° 0 mm 2 mps 719 mmHg 97%
    05:00 +16°C° 0 mm 2 mps 719 mmHg 94%
    06:00 +17°C° 0 mm 3 mps 720 mmHg 91%
    07:00 +19°C° 0 mm 3 mps 720 mmHg 88%
    08:00 +20°C° 0 mm 3 mps 720 mmHg 81%
    09:00 +22°C° 0 mm 3 mps 720 mmHg 75%
    10:00 +24°C° 0 mm 3 mps 720 mmHg 68%
    11:00 +25°C° 0.3 mm 3 mps 720 mmHg 68%
    12:00 +25°C° 0.3 mm 3 mps 720 mmHg 67%
    13:00 +25°C° 0.3 mm 3 mps 719 mmHg 67%
    14:00 +25°C° 0.3 mm 3 mps 719 mmHg 69%
    15:00 +25°C° 0.3 mm 3 mps 719 mmHg 71%
    16:00 +25°C° 0.3 mm 3 mps 719 mmHg 73%
    17:00 +23°C° 0.1 mm 2 mps 719 mmHg 78%
    18:00 +21°C° 0.1 mm 2 mps 719 mmHg 83%
    19:00 +21°C° 0.1 mm 1 mps 719 mmHg 87%
    20:00 +20°C° 0 mm 1 mps 719 mmHg 89%
    21:00 +19°C° 0 mm 1 mps 719 mmHg 90%
    22:00 +18°C° 0 mm 1 mps 719 mmHg 92%
    23:00 +18°C° 0 mm 1 mps 719 mmHg 92%

    22 July, Sunday

    Time Temperature Precipitation Wind Pressure Humidity
    00:00 +16°C° 0 mm 1 mps 718 mmHg 93%
    01:00 +16°C° 0 mm 1 mps 718 mmHg 93%
    02:00 +16°C° 0 mm 1 mps 718 mmHg 93%
    03:00 +15°C° 0 mm 1 mps 718 mmHg 94%
    04:00 +15°C° 0 mm 1 mps 718 mmHg 94%
    05:00 +18°C° 0 mm 1 mps 718 mmHg 90%
    06:00 +19°C° 0 mm 1 mps 718 mmHg 86%
    07:00 +20°C° 0 mm 2 mps 719 mmHg 81%
    08:00 +21°C° 0.1 mm 2 mps 719 mmHg 77%
    09:00 +23°C° 0.1 mm 2 mps 719 mmHg 72%
    10:00 +24°C° 0.1 mm 2 mps 719 mmHg 67%
    11:00 +25°C° 0.2 mm 3 mps 719 mmHg 66%
    12:00 +25°C° 0.2 mm 3 mps 718 mmHg 64%
    13:00 +26°C° 0.2 mm 3 mps 718 mmHg 62%
    14:00 +26°C° 0.3 mm 3 mps 718 mmHg 64%
    15:00 +25°C° 0.3 mm 3 mps 718 mmHg 66%
    16:00 +25°C° 0.3 mm 3 mps 718 mmHg 68%
    17:00 +22°C° 0.3 mm 3 mps 719 mmHg 74%
    18:00 +21°C° 0.3 mm 2 mps 719 mmHg 80%
    19:00 +20°C° 0.3 mm 2 mps 719 mmHg 85%
    20:00 +19°C° 0 mm 2 mps 719 mmHg 87%
    21:00 +18°C° 0 mm 2 mps 719 mmHg 89%
    22:00 +17°C° 0 mm 2 mps 720 mmHg 91%
    23:00 +16°C° 0 mm 2 mps 720 mmHg 92%
    Show more